Theta_e
318 318 318 320 321 322 323 324 325 326 325 326 326 326 324 322 320 321 320 320 321 322 322 321 324 325 325 333 343 354 360 361 359 357 356 356 356 356 355 355 354 354 355 353
320 320 318 317 319 321 321 323 325 325 326 326 325 325 325 324 323 323 321 321 321 322 322 323 325 325 326 329 331 341 350 358 358 354 353 351 353 354 355 355 354 354 356 354
321 321 320 319 318 318 320 323 324 325 325 325 324 324 324 324 324 324 324 323 322 323 323 323 323 327 326 327 331 334 342 351 357 350 353 354 354 357 357 357 357 357 354 352
322 321 321 319 320 318 319 319 322 324 326 325 324 325 324 323 324 324 323 323 323 324 324 323 325 328 328 326 330 332 339 350 354 354 351 353 351 351 353 354 353 352 352 351
322 321 322 321 321 320 319 319 321 322 323 324 323 325 325 323 324 324 324 324 324 324 324 324 323 325 323 326 328 332 336 347 348 353 350 352 349 348 351 352 353 351 350 351
319 318 319 320 323 320 320 320 321 320 321 323 322 323 323 322 323 324 325 325 324 324 324 325 324 323 324 324 326 330 337 345 351 354 353 351 349 351 352 351 351 351 350 350
320 318 318 319 323 323 321 323 327 325 323 324 322 322 322 322 323 323 324 324 325 325 324 325 325 324 324 323 325 331 340 349 351 353 352 350 351 352 350 351 351 349 348 347
322 323 321 319 321 323 322 322 325 328 325 322 321 323 322 322 323 323 324 324 325 325 325 325 325 325 323 323 325 331 343 348 352 350 350 351 352 350 352 351 348 347 346 345
328 324 319 319 321 323 322 322 322 322 323 327 322 322 322 323 323 323 323 324 325 326 327 326 325 325 325 326 329 336 346 347 347 348 349 348 350 350 348 349 347 345 344 343
320 326 321 322 322 323 324 323 324 323 332 333 325 324 323 323 324 323 323 324 333 337 331 328 325 327 328 332 339 345 345 346 347 347 346 346 345 344 342 341 340 339 338 338
317 324 324 322 326 326 322 326 326 325 324 325 324 324 326 325 325 324 324 338 342 338 346 344 336 338 342 345 344 344 345 344 343 342 340 340 337 336 337 336 335 335 334 333
318 320 325 321 322 323 323 322 329 333 331 325 328 337 333 331 332 333 342 343 342 343 345 345 345 343 342 343 343 341 340 339 340 339 336 334 333 332 330 329 327 326 325 324
315 322 324 329 324 325 327 324 323 326 327 329 328 333 332 331 332 335 340 339 340 340 341 341 341 342 342 343 344 341 338 337 335 332 331 329 328 327 325 324 323 322 322 321
315 318 322 324 323 324 327 326 326 325 333 334 330 329 335 335 336 336 335 336 341 341 341 341 341 341 341 340 337 335 334 332 330 329 327 326 324 323 322 321 319 318 317 316
314 318 318 319 319 319 323 327 326 328 329 330 328 328 333 334 335 334 334 336 339 338 337 336 337 336 334 332 331 330 328 327 326 324 323 322 321 319 318 317 316 315 314 314
314 317 315 318 318 321 322 326 325 326 326 326 327 328 324 328 331 333 333 334 335 334 334 333 331 330 329 327 326 324 323 322 321 320 319 318 317 317 316 315 315 315 314 314
314 316 320 322 323 324 329 329 326 326 327 327 327 328 333 333 331 331 332 331 331 330 328 327 325 325 323 323 322 321 320 319 319 318 317 316 315 314 314 314 313 313 312 311
314 316 318 326 333 336 328 325 325 326 325 324 325 332 332 333 330 330 329 328 327 324 324 322 322 321 320 320 319 318 317 316 315 315 314 314 313 313 312 311 310 310 309 308
316 316 320 334 333 332 328 331 327 327 327 324 324 328 331 331 330 329 324 323 321 322 320 318 317 316 316 315 315 314 313 313 312 311 310 309 309 309 308 307 307 307 306 307
316 315 319 323 332 337 329 325 325 329 333 326 327 326 332 330 331 327 319 316 314 314 315 314 314 314 313 314 313 313 312 311 310 309 308 308 307 306 306 306 306 306 307 307
321 320 321 323 329 328 321 322 326 335 332 327 329 329 332 331 329 322 319 316 313 310 310 312 311 312 313 311 310 311 310 308 308 307 307 306 305 305 304 306 307 306 305 304
325 325 326 326 329 332 315 324 332 330 331 331 330 332 331 328 325 323 320 316 313 311 310 310 311 312 311 311 310 309 307 306 306 306 305 304 305 304 305 305 304 304 303 304
324 320 322 316 318 313 315 320 323 325 330 329 329 330 325 321 317 314 312 312 311 311 311 311 310 310 310 310 310 309 307 305 304 304 305 305 305 305 303 303 303 303 302 303
319 315 316 316 310 313 314 313 313 315 316 320 320 319 318 313 310 310 308 308 309 309 310 309 309 308 307 305 305 305 303 302 302 304 304 304 304 302 301 301 301 301 300 301
315 313 311 310 305 310 312 312 309 308 307 308 309 310 309 308 308 307 308 308 309 310 309 309 309 308 307 305 303 302 301 301 303 303 303 303 302 301 300 298 297 296 293 293
316 317 318 314 309 308 314 312 310 309 308 307 306 306 306 309 309 309 307 306 307 309 309 309 308 306 304 302 302 301 300 300 302 303 301 300 301 301 300 297 295 293 291 291
Wind_Speed
17 16 23 26 26 27 25 27 27 23 24 22 28 26 22 22 17 18 18 20 21 25 24 30 30 27 26 24 25 22 26 27 25 26 26 25 25 24 23 22 20 19 17 19
18 22 24 24 24 26 27 28 29 20 14 21 22 22 23 25 26 23 20 19 21 21 22 22 30 29 26 26 24 21 24 25 28 26 24 23 22 22 22 21 18 18 16 15
23 24 21 23 24 26 26 27 26 27 21 17 13 22 24 25 22 23 23 24 22 20 22 21 19 25 28 23 24 26 26 27 29 25 23 16 14 9 13 10 16 14 14 15
20 21 24 23 21 23 26 26 25 25 23 18 26 19 23 24 24 24 23 24 24 24 23 22 23 20 25 28 27 29 29 27 26 23 22 22 19 15 15 15 13 17 18 19
22 21 24 25 26 23 26 21 21 23 23 22 25 16 19 21 26 28 27 25 24 24 25 25 24 26 30 29 26 25 26 27 26 26 21 21 17 14 15 13 18 18 18 16
28 26 25 18 25 24 18 22 21 21 19 20 26 22 21 20 23 21 20 27 25 24 24 24 25 26 26 31 30 26 26 28 26 26 20 19 17 10 12 12 15 16 15 16
24 28 30 17 18 24 22 15 11 13 16 19 26 25 21 16 19 21 22 21 20 23 23 23 23 22 25 27 25 26 27 27 26 25 21 19 18 12 12 17 14 14 13 14
22 25 20 14 26 19 28 24 12 14 16 19 26 23 25 28 7 7 7 16 20 20 22 23 23 23 25 27 25 26 27 25 22 23 20 19 17 15 13 10 13 7 6 8
8 22 16 19 19 31 22 18 28 26 5 9 17 21 19 13 13 16 12 11 8 10 13 20 22 22 20 23 24 26 27 21 22 22 20 20 17 15 17 12 11 9 9 5
5 10 12 4 9 29 17 22 20 15 9 12 15 24 16 20 15 13 20 19 7 5 16 18 16 17 23 25 24 24 25 23 25 23 23 23 23 20 19 17 15 13 11 9
2 7 9 7 16 22 15 10 13 14 17 12 13 10 8 15 16 20 15 13 9 9 8 10 14 18 23 24 25 27 27 28 27 29 29 28 27 24 20 18 16 15 14 12
4 4 5 14 25 20 25 23 23 11 10 16 15 5 13 10 9 13 14 10 9 7 9 11 15 16 20 24 26 28 30 31 30 29 28 27 26 24 22 20 17 15 14 12
4 1 5 9 10 8 10 18 22 26 15 17 15 7 4 7 8 4 12 10 9 12 12 13 13 15 17 26 30 31 32 32 31 31 30 28 25 23 21 19 16 14 11 10
2 3 9 11 15 9 11 18 23 24 13 14 13 7 15 10 12 9 10 6 12 14 17 17 16 17 21 27 32 33 33 32 32 31 29 27 24 21 19 17 14 11 10 9
2 6 14 20 25 21 22 24 24 22 20 16 18 13 11 6 13 13 12 7 15 12 15 14 16 19 22 28 31 32 32 31 30 29 27 25 22 19 17 15 12 10 10 9
1 5 14 22 21 19 20 19 24 24 20 19 21 6 6 2 13 13 14 11 17 17 16 18 19 21 21 28 30 31 30 28 27 27 24 21 19 16 14 12 10 9 9 9
9 4 3 8 9 10 10 24 26 25 21 25 18 9 19 17 18 15 16 16 17 16 16 17 19 19 24 27 28 28 28 26 25 23 20 18 15 13 10 8 8 8 9 10
12 10 3 7 8 6 6 18 18 21 20 21 14 18 19 16 18 16 15 16 17 19 20 19 16 23 25 27 26 27 25 25 23 20 17 13 11 10 8 7 8 9 10 11
14 5 5 5 4 2 11 11 3 10 16 17 12 11 18 20 20 17 17 18 16 15 14 17 21 23 24 26 24 24 24 22 19 16 14 12 9 8 8 9 9 9 9 8
10 11 5 4 4 1 4 11 12 9 12 19 14 10 20 22 12 9 18 20 15 15 20 21 24 22 25 18 20 22 21 19 16 11 9 8 9 9 8 8 7 7 7 7
3 3 6 6 3 0 10 17 10 8 2 7 22 23 26 18 13 20 19 21 22 13 19 20 23 22 20 20 20 20 17 14 9 8 8 8 8 7 6 7 7 8 7 6
3 4 4 4 3 2 16 9 5 7 9 8 24 21 18 22 25 19 17 18 20 17 17 17 23 21 15 13 14 14 13 7 5 7 6 7 7 7 7 7 7 5 5 3
1 3 2 4 3 8 10 7 9 8 10 16 14 23 24 23 23 22 17 15 14 18 18 19 22 19 14 12 12 10 7 5 5 5 6 6 5 7 7 6 5 4 5 4
2 2 3 2 7 12 11 13 17 18 21 19 18 15 21 21 19 19 18 13 12 14 16 21 20 17 15 12 11 6 5 4 4 4 4 3 6 6 6 6 6 6 6 5
2 3 3 4 3 9 13 13 16 20 20 24 21 18 18 21 17 19 16 12 7 13 19 18 16 14 12 10 8 5 4 5 4 3 3 4 5 5 7 9 9 7 9 8
7 4 2 3 11 8 9 14 19 20 19 18 20 20 16 16 18 16 13 14 7 12 15 14 12 11 8 6 5 4 4 4 3 5 6 4 4 6 5 10 11 10 10 13
Wind_Direction
200 219 227 226 221 247 250 267 253 237 229 251 227 238 237 228 228 230 218 229 227 227 221 211 206 208 195 195 197 193 192 192 186 195 199 208 208 212 217 220 218 213 201 205
238 229 244 245 240 237 241 254 261 259 257 242 239 245 236 232 218 218 212 218 223 225 223 220 200 198 193 181 192 202 197 194 193 198 203 207 212 215 217 216 219 208 200 203
247 246 231 232 251 244 242 242 246 256 248 228 258 257 247 240 241 230 226 218 227 231 222 214 223 196 191 189 191 195 201 199 196 201 198 196 210 218 204 202 199 193 197 207
265 261 249 261 238 243 243 239 243 254 248 237 206 248 240 232 233 229 227 227 220 224 224 222 210 218 196 200 198 199 198 195 194 198 191 189 193 200 214 218 213 216 211 216
255 253 248 246 238 234 245 243 244 237 252 257 250 252 252 239 226 219 222 221 223 219 223 217 220 208 207 197 195 194 192 193 192 191 193 184 198 194 194 194 205 203 199 210
270 269 267 251 280 245 231 238 241 239 230 235 238 241 244 239 228 230 217 214 215 216 220 216 214 217 205 201 197 185 183 185 184 181 179 181 194 181 168 183 178 195 199 203
262 257 250 245 230 258 209 211 228 226 222 234 228 228 237 261 226 224 215 210 211 210 216 216 211 207 209 208 195 172 178 175 175 175 172 176 181 163 176 181 183 187 192 190
262 261 236 243 250 238 211 210 212 209 220 227 223 227 227 232 207 307 261 208 217 211 210 211 211 210 200 193 190 178 173 165 157 165 169 173 156 168 168 179 166 201 122 104
272 254 226 231 230 227 214 206 217 237 263 296 224 208 236 215 209 205 214 217 206 227 229 227 211 197 182 177 184 171 159 148 157 156 146 146 156 144 116 106 103 84 78 85
309 287 236 290 303 272 188 231 215 239 222 229 230 202 208 193 195 212 209 214 157 245 217 209 192 174 172 166 154 147 141 144 134 131 121 111 105 108 104 102 98 98 100 98
150 263 294 220 195 216 193 198 253 242 245 251 254 221 343 164 195 187 205 129 141 194 64 53 122 127 121 117 128 125 133 123 116 111 109 106 104 104 107 106 104 100 96 90
87 275 285 297 288 315 211 222 186 236 224 240 267 14 339 69 110 94 85 102 112 121 128 102 100 106 119 131 129 119 117 116 121 118 113 109 108 109 108 105 100 96 89 83
5 281 302 308 225 264 262 232 240 215 229 228 242 172 337 106 108 88 118 117 144 149 132 113 122 130 141 143 136 122 118 120 118 116 114 111 109 107 103 100 95 89 83 73
330 256 255 276 294 335 249 232 221 235 218 225 241 189 169 154 136 135 124 151 160 144 144 142 149 144 125 125 121 121 117 118 118 114 112 109 105 102 98 92 85 78 69 58
51 261 267 279 282 270 246 255 212 228 222 230 245 296 170 113 140 134 138 158 143 131 129 133 131 130 120 117 117 117 115 114 114 111 107 103 102 97 92 85 77 65 52 38
202 274 306 295 283 254 250 253 204 218 227 227 245 206 331 258 135 129 128 140 121 122 145 124 119 119 116 114 112 112 110 111 109 104 102 100 95 91 86 78 65 48 28 11
281 279 304 278 216 215 249 234 197 204 208 225 234 132 169 153 139 137 131 129 125 124 122 105 105 110 113 113 112 110 108 106 101 100 100 98 97 88 76 59 39 20 2 347
248 257 257 256 161 161 113 196 205 203 215 221 231 136 145 138 127 133 128 131 121 109 108 105 107 106 106 102 102 101 99 99 97 96 94 90 85 72 51 24 12 354 343 339
222 227 268 314 311 214 98 23 215 216 221 213 208 92 115 123 120 103 96 94 95 108 104 113 96 102 103 99 100 97 98 97 98 93 83 67 57 48 22 7 352 349 344 341
205 215 274 321 311 277 25 355 341 321 223 199 150 118 133 143 135 128 122 102 84 95 107 107 107 93 78 76 104 97 94 89 83 88 84 61 38 24 7 356 356 3 6 12
170 200 238 266 283 264 352 329 308 189 200 166 130 162 158 165 141 135 131 122 116 113 101 103 96 90 86 87 83 81 83 78 80 66 49 41 22 8 17 16 30 27 20 26
174 200 207 213 250 232 350 330 337 354 313 284 135 176 144 112 129 134 124 117 125 129 125 118 93 91 109 102 101 99 92 76 50 41 24 24 19 26 39 41 41 45 17 36
240 340 63 24 17 310 320 310 8 25 40 73 105 118 116 114 111 104 101 108 114 120 126 112 113 125 129 128 123 107 104 86 40 18 22 32 36 52 59 54 39 54 36 26
17 70 80 166 342 16 16 46 42 57 63 75 79 89 105 107 107 112 106 106 108 122 129 129 135 132 126 110 101 111 83 56 37 28 36 50 78 75 65 69 57 49 40 41
5 51 105 89 241 357 39 67 76 70 71 75 74 90 103 102 99 106 105 102 116 141 135 137 133 126 122 119 102 76 50 45 59 83 82 78 102 91 97 74 59 80 50 40
340 332 73 86 70 81 71 73 74 74 74 78 87 80 69 89 104 100 98 104 122 126 124 123 122 117 114 104 93 71 56 63 92 111 99 95 102 104 121 120 102 84 75 63